STARLINK-11740, 64382

Orbit data source: Space-Track

STARLINK-11740, 64382 is a payload satellite owned by SpaceX/Seattle (US) in LEO that was launched on Fri, 13 Jun 2025 UTC via an FALCON 9 launch vehicle from the Air Force Eastern Test Range (AFETR). Payload-class satellites include a variety of spacecraft equipped with specific instruments for various scientific and technological missions. These include communications satellites like Starlink; space stations such as the ISS; scientific satellites like the Hubble; Earth observation satellites from companies like Planet Labs, Umbra, and HawkEye 360; GPS; miniature CubeSats for education and research; and military/defense satellites.

Loading next visibility...
Identifier
64382, 2025-127N
Orbit
LEO
Country
Flag of USUS
Related business
Manufacturer
SpaceX/Seattle
Mission
Operational Commercial Communications
Bus & Motor
STARLINK V2MD, Unknown motor
Mass
960 kg wet, ~910 kg dry
Launch date (UTC)
2025-06-13 (10 months ago)
Launch vehicle
FALCON 9
Launch site
Air Force Eastern Test Range (AFETR)
Object type
Payload
Rocket body
Debris
Shape & HBR
Box + 2 Pan, 18.1 m
Radar Cross Section
36.964 m², Large (>1 m²)

Expand to show TLE details & history
Last TLE update: 1 day ago

TLE from 1 day ago
0 STARLINK-11740
1 64382U 25127N   26094.55397243  .00231448  00000-0  17500-2 0  9996
2 64382  42.9986 288.3176 0002345 288.8568  71.2045 15.70940692 47572
Epoch: 2026-04-04T13:17Z
TLE epoch observation values (Epoch: 2026-04-04T13:17:43.217Z)
Latitude
-0.00006°
Longitude
-103.98462°
Altitude
355.47 km
Speed
7.698 km/s
True Right ascension
19h 13m 16s
True Declination
0° 00' 00"
Sunlit
Object was in daylight at epoch
Visualization orbit readout
Latitude
Unknown
Longitude
Unknown
Altitude
Unknown
Speed
Unknown
Apparent Right ascension
Unknown
Apparent Declination
Unknown
Sunlit
N/A
Visualization observer readout
Local Sidereal Time
22:16:07
Azimuth
Unknown
Elevation
Unknown
Doppler factor
Unknown
Orbital elements
Apogee altitude
359.769 km
Perigee altitude
356.61 km
Semi-major axis
6,736.326 km
Eccentricity
0.00023
Inclination
42.9986°
RAAN
288.3176°
Arg. of periapsis
288.8568°
True anomaly
71.22994°
Mean anomaly
71.2045°
Eccentric anomaly
71.21722°
Mean motion
3.92562 °/min
Orbital period
91.71 mins
BSTAR
0.00175
Loading maneuver chart data...
Computing Atmospheric mass density...
Loading historical data...
Loading historical data...
Loading historical data...
Loading historical data...
Loading historical data...
Loading historical data...
Loading historical data...

Documentation

Showing up to 5 results
|